Location: U-46 Planetarium
(42.0300°N, 88.2740°W)
Time: 02:52:28
(UTC-05:00)

SL-16 R/B - Pass Details

Date: 16 December 2017
Orbit: 843 x 846 km, 71.0° (Epoch: 20 April)

Event Time Altitude Azimuth Distance (km) Brightness Sun altitude
Rises 18:49:02 0° 180° (S) 3,387 5.4 -26.2°
Reaches altitude 10° 18:51:36 10° 173° (S) 2,456 4.6 -26.7°
Enters shadow 18:53:10 18° 164° (SSE) 1,934 4.0 -27.0°
